Simultaneous Nadir Overpasses (SNOs) Predictions

Prediction of SNOs between NOAA-15 and METOP-C Satellite Orbit:

Table of predicted SNOs for the next 14.0 days since TLE Epoch: 9/2/2019
Index Date (NOAA-15) Time (NOAA-15) Lat,Lon (NOAA-15) SZA (NOAA-15 ) Date (METOP-C) Time (METOP-C) Lat,Lon (METOP-C) SZA (METOP-C ) Distance(km) Time Diff (sec)
1 09/15/2019 09:48:12 80.83, 66.91 79.42 09/15/2019 09:46:59 80.85, 66.85 79.40 2.21 73
2 09/15/2019 10:38:48 -80.85,-125.97 100.58 09/15/2019 10:37:41 -80.84,-125.96 100.61 0.41 67
3 09/15/2019 11:29:15 80.84, 41.54 79.45 09/15/2019 11:28:21 80.84, 41.36 79.41 3.10 54
4 09/15/2019 12:19:51 -80.85,-151.35 100.56 09/15/2019 12:19:03 -80.83,-151.45 100.60 2.51 48
5 09/15/2019 13:10:18 80.85, 16.16 79.47 09/15/2019 13:09:42 80.85, 16.23 79.47 1.52 36
6 09/15/2019 14:00:54 -80.86,-176.73 100.54 09/15/2019 14:00:24 -80.85,-176.58 100.54 3.03 30
7 09/15/2019 14:51:21 80.85, -9.22 79.49 09/15/2019 14:51:04 80.84, -9.26 79.47 0.99 17
8 09/15/2019 15:41:56 -80.85, 158.24 100.50 09/15/2019 15:41:45 -80.86, 158.29 100.49 1.46 11
9 09/15/2019 16:32:23 80.84, -34.25 79.53 09/15/2019 16:32:25 80.86, -34.40 79.53 3.23 2
10 09/15/2019 17:22:59 -80.85, 132.86 100.48 09/15/2019 17:23:07 -80.85, 132.80 100.48 1.17 8
11 09/15/2019 18:13:27 80.86, -59.98 79.53 09/15/2019 18:13:47 80.85, -59.89 79.54 2.47 20
12 09/15/2019 19:04:02 -80.86, 107.48 100.45 09/15/2019 19:04:28 -80.86, 107.67 100.42 3.25 26
13 09/15/2019 19:54:29 80.85, -85.01 79.57 09/15/2019 19:55:08 80.86, -85.02 79.59 0.86 39
14 09/15/2019 20:45:05 -80.86, 82.10 100.43 09/15/2019 20:45:50 -80.85, 82.18 100.42 1.89 45
15 09/15/2019 21:35:32 80.86,-110.39 79.59 09/15/2019 21:36:30 80.85,-110.51 79.60 2.28 58
16 09/15/2019 22:26:07 -80.85, 57.08 100.39 09/15/2019 22:27:11 -80.86, 57.05 100.36 1.37 64




NCC Satellite Simultaneous Nadir Overpasses (SNOs) Prediction Service
